This demonstration page uses our WeatherBlox Daily Observations layout. Learn more.

Left ArrowRight Arrow

39.92423, -83.80882

Hourly Observations for August 21, 2016

Temp ( °F °C ) Dew Point ( °F °C ) Humidity (%) Winds ( mph kmh ) Pressure ( in mb ) Visibility ( mi km ) Precip ( " mm )
12:04 am 00:04 Mostly Cloudy 70 21 70 21 100 100 SW 7 11 29.74 1007 10 16.0934 N/A
12:25 am 00:25 Mostly Clear 70 21 68 20 94 94 undefined N/A N/A 10 16.0934 N/A
12:56 am 00:56 Clear 68 20 68 20 100 100 undefined N/A 29.75 1008 10 16.0934 N/A
1:56 am 01:56 Clear 69 20.6 68 20 96 96 SW 6 9 N/A 10 16.0934 N/A
2:56 am 02:56 Mostly Clear 69 20.6 68 20 96 96 WSW 7 11 29.76 1008 10 16.0934 N/A
3:11 am 03:11 Mostly Cloudy 70 21 68 20 94 94 WSW 8 13 29.77 1008 10 16.0934 N/A
3:18 am 03:18 Mostly Cloudy 70 21 68 20 94 94 W 10 17 29.77 1008 10 16.0934 N/A
3:56 am 03:56 Mostly Cloudy 69 20.6 68 20 96 96 W 10 17 29.77 1008 10 16.0934 N/A
4:56 am 04:56 Cloudy 68 20 66 18.9 93 93 WNW 10 17 29.78 1009 10 16.0934 N/A
5:04 am 05:04 Cloudy 66 19 64 18 94 94 WNW 9 15 29.77 1008 10 16.0934 N/A
5:56 am 05:56 Cloudy 65 18.3 64 17.8 97 97 WSW 6 9 29.8 1009 10 16.0934 N/A
6:56 am 06:56 Cloudy 65 18.3 63 17.2 93 93 WNW 8 13 29.83 1010 10 16.0934 N/A
7:56 am 07:56 Partly Cloudy 65 18.3 63 17.2 93 93 W 9 15 N/A 10 16.0934 N/A
8:56 am 08:56 Sunny 66 18.9 61 16.1 84 84 W 10 17 29.88 1012 10 16.0934 N/A
9:56 am 09:56 Sunny 68 20 61 16.1 78 78 WNW 8 13 29.89 1012 10 16.0934 N/A
10:56 am 10:56 Mostly Sunny 71 21.7 62 16.7 73 73 W 12 19 29.91 1013 10 16.0934 N/A
11:56 am 11:56 Mostly Sunny 73 22.8 61 16.1 66 66 W 12 19 29.91 1013 10 16.0934 N/A
12:56 pm 12:56 Partly Cloudy 74 23.3 61 16.1 64 64 W 15 24 29.92 1013 10 16.0934 N/A
1:56 pm 13:56 Mostly Sunny 75 23.9 61 16.1 62 62 WNW 15 24 29.92 1013 10 16.0934 N/A
2:56 pm 14:56 Mostly Sunny 75 23.9 59 15 58 58 WNW 13 20 29.93 1013 10 16.0934 N/A
3:56 pm 15:56 Mostly Cloudy 76 24.4 59 15 56 56 WNW 17 28 29.93 1014 10 16.0934 N/A
4:56 pm 16:56 Mostly Cloudy 75 23.9 58 14.4 55 55 WNW 15 24 29.94 1014 10 16.0934 N/A
5:56 pm 17:56 Mostly Sunny 76 24.4 58 14.4 54 54 WNW 13 20 29.94 1014 10 16.0934 N/A
6:56 pm 18:56 Sunny 74 23.3 59 15 60 60 WNW 10 17 29.96 1014 10 16.0934 N/A
7:56 pm 19:56 Sunny 71 21.7 57 13.9 61 61 undefined N/A N/A 10 16.0934 N/A
8:56 pm 20:56 Clear 67 19.4 58 14.4 73 73 WNW 7 11 30.01 1016 10 16.0934 N/A
9:56 pm 21:56 Clear 64 17.8 57 13.9 78 78 WNW 7 11 30.04 1017 10 16.0934 N/A
10:56 pm 22:56 Clear 61 16.1 57 13.9 87 87 WNW 6 9 30.06 1018 10 16.0934 N/A
11:56 pm 23:56 Clear 59 15 57 13.9 93 93 undefined N/A 30.08 1019 10 16.0934 N/A

Powered by AerisWeather